Location: Peebles
(55.6412°N, 3.1714°W)
Time: 16:05:56
(UTC+01:00)

FLOCK 4S 45 - Visible Passes

Search period start: 03 July 2022 00:00
Search period end: 13 July 2022 00:00
Orbit: 510 x 524 km, 97.4° (Epoch: 02 July)

Date Brightness Start Highest point End Pass type
(mag) Time Alt. Az. Time Alt. Az. Time Alt. Az.
03 Jul ? 23:17:18 10° SW 23:19:34 15° W 23:21:51 10° NW visible
04 Jul ? 23:02:06 10° SW 23:04:58 20° W 23:07:51 10° NW visible
09 Jul ? 23:25:11 10° WSW 23:26:58 13° W 23:28:46 10° WNW visible
10 Jul ? 23:09:45 10° SW 23:12:20 17° W 23:14:55 10° NW visible
11 Jul ? 22:54:38 10° SW 22:57:42 23° W 23:00:47 10° NW visible
